Time,TemperatureF,DewpointF,PressureIn,WindDirection,WindDirectionDegrees,WindSpeedMPH,WindSpeedGustMPH,Humidity,HourlyPrecipIn,Conditions,Clouds,dailyrainin,SolarRadiationWatts/m^2,SoftwareType,DateUTC
2013-08-20 00:02:00,62.6,58.3,30.01,NNW,330,0.0,1.0,86,0.00,,,0.00,0.0,meteohub,2013-08-20 07:02:00,
2013-08-20 00:07:00,62.6,58.3,30.02,NNW,330,0.0,1.0,86,0.00,,,0.00,0.0,meteohub,2013-08-20 07:07:00,
2013-08-20 00:12:00,62.6,58.3,30.02,NNW,330,0.0,1.0,86,0.00,,,0.00,0.0,meteohub,2013-08-20 07:12:00,
2013-08-20 00:17:00,62.4,58.1,30.01,NNW,330,1.0,0.0,86,0.00,,,0.00,0.0,meteohub,2013-08-20 07:17:00,
2013-08-20 00:22:00,62.6,58.3,30.01,NNW,330,0.0,2.0,86,0.00,,,0.00,0.0,meteohub,2013-08-20 07:22:00,
2013-08-20 00:27:00,62.6,59.4,30.01,NNW,330,0.0,2.0,89,0.00,,,0.00,0.0,meteohub,2013-08-20 07:27:00,
2013-08-20 00:32:00,62.8,58.8,30.02,NNW,330,0.0,2.0,87,0.00,,,0.00,0.0,meteohub,2013-08-20 07:32:00,
2013-08-20 00:37:00,63.0,58.6,30.01,NNW,330,0.0,2.0,86,0.00,,,0.00,0.0,meteohub,2013-08-20 07:37:00,
2013-08-20 00:42:00,63.3,58.8,30.01,NNW,330,0.0,2.0,85,0.00,,,0.00,0.0,meteohub,2013-08-20 07:42:00,
2013-08-20 00:47:00,63.3,58.8,30.02,NNW,330,0.0,2.0,85,0.00,,,0.00,0.0,meteohub,2013-08-20 07:47:00,
2013-08-20 00:52:00,63.3,58.8,30.02,NNW,330,0.0,2.0,85,0.00,,,0.00,0.0,meteohub,2013-08-20 07:52:00,
2013-08-20 00:57:00,63.5,58.3,30.02,NNW,330,0.0,2.0,83,0.00,,,0.00,0.0,meteohub,2013-08-20 07:57:00,
2013-08-20 01:02:00,63.5,58.3,30.02,NNW,330,0.0,2.0,83,0.00,,,0.00,0.0,meteohub,2013-08-20 08:02:00,
2013-08-20 01:07:00,63.3,58.1,30.02,NNW,330,0.0,2.0,83,0.00,,,0.00,0.0,meteohub,2013-08-20 08:07:00,
2013-08-20 01:12:00,63.7,58.1,30.01,NNW,332,0.0,2.0,82,0.00,,,0.00,0.0,meteohub,2013-08-20 08:12:00,
2013-08-20 01:17:00,63.9,57.9,30.01,NNW,332,0.0,3.0,81,0.00,,,0.00,0.0,meteohub,2013-08-20 08:17:00,
2013-08-20 01:22:00,63.9,57.9,30.02,West,269,0.0,3.0,81,0.00,,,0.00,0.0,meteohub,2013-08-20 08:22:00,
2013-08-20 01:27:00,63.9,58.3,30.01,West,269,0.0,2.0,82,0.00,,,0.00,0.0,meteohub,2013-08-20 08:27:00,
2013-08-20 01:32:00,63.7,58.1,30.01,West,269,0.0,2.0,82,0.00,,,0.00,0.0,meteohub,2013-08-20 08:32:00,
2013-08-20 01:37:00,63.3,58.1,30.01,West,269,0.0,2.0,83,0.00,,,0.00,0.0,meteohub,2013-08-20 08:37:00,
2013-08-20 01:42:00,63.3,58.1,30.01,West,269,0.0,2.0,83,0.00,,,0.00,0.0,meteohub,2013-08-20 08:42:00,
2013-08-20 01:47:00,63.3,58.5,30.01,West,269,0.0,2.0,84,0.00,,,0.00,0.0,meteohub,2013-08-20 08:47:00,
2013-08-20 01:52:00,63.3,58.8,30.01,NNW,339,0.0,2.0,85,0.00,,,0.00,0.0,meteohub,2013-08-20 08:52:00,
2013-08-20 01:57:00,63.1,58.6,30.02,NNW,339,0.0,2.0,85,0.00,,,0.00,0.0,meteohub,2013-08-20 08:57:00,
2013-08-20 02:02:00,63.0,58.5,30.01,NNW,339,1.0,2.0,85,0.00,,,0.00,0.0,meteohub,2013-08-20 09:02:00,
2013-08-20 02:07:00,63.1,58.6,30.01,NNW,339,0.0,2.0,85,0.00,,,0.00,0.0,meteohub,2013-08-20 09:07:00,
2013-08-20 02:12:00,63.1,58.8,30.02,NNW,339,0.0,2.0,86,0.00,,,0.00,0.0,meteohub,2013-08-20 09:12:00,
2013-08-20 02:17:00,63.0,58.5,30.01,NNW,348,0.0,2.0,85,0.00,,,0.00,0.0,meteohub,2013-08-20 09:17:00,
2013-08-20 02:22:00,63.0,58.5,30.02,NNW,348,0.0,2.0,85,0.00,,,0.00,0.0,meteohub,2013-08-20 09:22:00,
2013-08-20 02:27:00,63.0,58.5,30.02,NNW,348,0.0,2.0,85,0.00,,,0.00,0.0,meteohub,2013-08-20 09:27:00,
2013-08-20 02:32:00,63.0,58.1,30.01,NNW,348,1.0,2.0,84,0.00,,,0.00,0.0,meteohub,2013-08-20 09:32:00,
2013-08-20 02:37:00,63.0,58.5,30.01,NNW,348,0.0,2.0,85,0.00,,,0.00,0.0,meteohub,2013-08-20 09:37:00,
2013-08-20 02:42:00,63.0,58.1,30.01,NNW,348,0.0,2.0,84,0.00,,,0.00,0.0,meteohub,2013-08-20 09:42:00,
2013-08-20 02:47:00,63.0,58.5,30.02,NNW,348,1.0,2.0,85,0.00,,,0.00,0.0,meteohub,2013-08-20 09:47:00,
2013-08-20 02:52:00,63.0,58.6,30.02,NNW,348,0.0,2.0,86,0.00,,,0.00,0.0,meteohub,2013-08-20 09:52:00,
2013-08-20 02:57:00,62.8,58.3,30.02,NNW,348,0.0,1.0,85,0.00,,,0.00,0.0,meteohub,2013-08-20 09:57:00,
2013-08-20 03:02:00,62.8,58.5,30.02,NNW,348,0.0,1.0,86,0.00,,,0.00,0.0,meteohub,2013-08-20 10:02:00,
2013-08-20 03:07:00,62.6,58.1,30.02,NNE,33,0.0,1.0,85,0.00,,,0.00,0.0,meteohub,2013-08-20 10:07:00,
2013-08-20 03:12:00,62.6,58.1,30.02,NNE,33,0.0,3.0,85,0.00,,,0.00,0.0,meteohub,2013-08-20 10:12:00,
2013-08-20 03:17:00,62.4,57.9,30.02,NNE,33,2.0,3.0,85,0.00,,,0.00,0.0,meteohub,2013-08-20 10:17:00,
2013-08-20 03:22:00,62.4,57.9,30.02,NNE,33,0.0,2.0,85,0.00,,,0.00,0.0,meteohub,2013-08-20 10:22:00,
2013-08-20 03:27:00,62.4,57.9,30.02,NNE,33,0.0,2.0,85,0.00,,,0.00,0.0,meteohub,2013-08-20 10:27:00,
2013-08-20 03:32:00,62.4,57.9,30.02,NNE,33,0.0,2.0,85,0.00,,,0.00,0.0,meteohub,2013-08-20 10:32:00,
2013-08-20 03:37:00,62.4,58.1,30.02,NNE,33,0.0,2.0,86,0.00,,,0.00,0.0,meteohub,2013-08-20 10:37:00,
2013-08-20 03:42:00,62.4,58.1,30.02,NNE,33,0.0,2.0,86,0.00,,,0.00,0.0,meteohub,2013-08-20 10:42:00,
2013-08-20 03:47:00,62.4,58.1,30.02,NNE,33,0.0,2.0,86,0.00,,,0.00,0.0,meteohub,2013-08-20 10:47:00,
2013-08-20 03:52:00,62.4,58.5,30.02,NNE,33,0.0,2.0,87,0.00,,,0.00,0.0,meteohub,2013-08-20 10:52:00,
2013-08-20 03:57:00,62.2,58.3,30.02,NNE,33,0.0,2.0,87,0.00,,,0.00,0.0,meteohub,2013-08-20 10:57:00,
2013-08-20 04:02:00,62.2,58.3,30.03,NNE,33,0.0,2.0,87,0.00,,,0.00,0.0,meteohub,2013-08-20 11:02:00,
2013-08-20 04:07:00,62.2,58.3,30.03,NNE,33,0.0,2.0,87,0.00,,,0.00,0.0,meteohub,2013-08-20 11:07:00,
2013-08-20 04:12:00,62.1,57.7,30.03,NE,46,0.0,2.0,86,0.00,,,0.00,0.0,meteohub,2013-08-20 11:12:00,
2013-08-20 04:17:00,61.9,57.6,30.03,NE,46,0.0,2.0,86,0.00,,,0.00,0.0,meteohub,2013-08-20 11:17:00,
2013-08-20 04:22:00,61.9,57.6,30.03,NE,46,0.0,2.0,86,0.00,,,0.00,0.0,meteohub,2013-08-20 11:22:00,
2013-08-20 04:27:00,61.9,57.4,30.03,NE,46,0.0,3.0,85,0.00,,,0.00,0.0,meteohub,2013-08-20 11:27:00,
2013-08-20 04:32:00,61.9,56.7,30.03,NE,46,0.0,3.0,83,0.00,,,0.00,0.0,meteohub,2013-08-20 11:32:00,
2013-08-20 04:37:00,61.9,56.3,30.03,East,98,0.0,3.0,82,0.00,,,0.00,0.0,meteohub,2013-08-20 11:37:00,
2013-08-20 04:42:00,62.1,56.1,30.03,NE,46,0.0,3.0,81,0.00,,,0.00,0.0,meteohub,2013-08-20 11:42:00,
2013-08-20 04:47:00,62.1,56.5,30.03,NE,56,2.0,4.0,82,0.00,,,0.00,0.0,meteohub,2013-08-20 11:47:00,
2013-08-20 04:52:00,62.1,55.8,30.03,ENE,60,2.0,5.0,80,0.00,,,0.00,0.0,meteohub,2013-08-20 11:52:00,
2013-08-20 04:57:00,62.1,55.8,30.04,ENE,71,1.0,5.0,80,0.00,,,0.00,0.0,meteohub,2013-08-20 11:57:00,
2013-08-20 05:02:00,62.2,55.9,30.04,ENE,71,0.0,5.0,80,0.00,,,0.00,0.0,meteohub,2013-08-20 12:02:00,
2013-08-20 05:07:00,62.2,55.9,30.04,ENE,70,1.0,3.0,80,0.00,,,0.00,0.0,meteohub,2013-08-20 12:07:00,
2013-08-20 05:12:00,62.2,55.9,30.04,NNE,26,1.0,3.0,80,0.00,,,0.00,0.0,meteohub,2013-08-20 12:12:00,
2013-08-20 05:17:00,62.2,55.9,30.04,WSW,239,0.0,3.0,80,0.00,,,0.00,0.0,meteohub,2013-08-20 12:17:00,
2013-08-20 05:22:00,62.1,55.8,30.04,NNE,26,2.0,5.0,80,0.00,,,0.00,0.0,meteohub,2013-08-20 12:22:00,
2013-08-20 05:27:00,62.1,55.4,30.04,ENE,67,1.0,7.0,79,0.00,,,0.00,0.0,meteohub,2013-08-20 12:27:00,
2013-08-20 05:32:00,62.1,55.8,30.04,NE,49,0.0,7.0,80,0.00,,,0.00,0.0,meteohub,2013-08-20 12:32:00,
2013-08-20 05:37:00,62.1,55.8,30.04,NE,49,1.0,7.0,80,0.00,,,0.00,0.0,meteohub,2013-08-20 12:37:00,
2013-08-20 05:42:00,62.1,55.8,30.04,NE,49,0.0,5.0,80,0.00,,,0.00,0.0,meteohub,2013-08-20 12:42:00,
2013-08-20 05:47:00,62.1,55.8,30.04,NE,49,0.0,3.0,80,0.00,,,0.00,0.0,meteohub,2013-08-20 12:47:00,
2013-08-20 05:52:00,62.1,55.8,30.04,NE,49,0.0,3.0,80,0.00,,,0.00,0.0,meteohub,2013-08-20 12:52:00,
2013-08-20 05:57:00,62.1,55.8,30.04,NE,49,0.0,0.0,80,0.00,,,0.00,0.0,meteohub,2013-08-20 12:57:00,
2013-08-20 06:02:00,61.9,55.6,30.04,NE,49,0.0,0.0,80,0.00,,,0.00,0.0,meteohub,2013-08-20 13:02:00,
2013-08-20 06:07:00,61.7,55.4,30.04,NE,49,1.0,2.0,80,0.00,,,0.00,0.0,meteohub,2013-08-20 13:07:00,
2013-08-20 06:12:00,61.5,55.6,30.05,ESE,108,0.0,2.0,81,0.00,,,0.00,0.0,meteohub,2013-08-20 13:12:00,
2013-08-20 06:17:00,61.3,55.4,30.04,ESE,108,0.0,2.0,81,0.00,,,0.00,0.0,meteohub,2013-08-20 13:17:00,
2013-08-20 06:22:00,61.2,55.2,30.05,ESE,109,0.0,2.0,81,0.00,,,0.00,0.0,meteohub,2013-08-20 13:22:00,
2013-08-20 06:27:00,61.2,55.6,30.05,ESE,109,0.0,1.0,82,0.00,,,0.00,9.0,meteohub,2013-08-20 13:27:00,
2013-08-20 06:32:00,61.0,55.0,30.05,ESE,109,0.0,2.0,81,0.00,,,0.00,12.0,meteohub,2013-08-20 13:32:00,
2013-08-20 06:37:00,60.6,55.0,30.05,ESE,109,0.0,2.0,82,0.00,,,0.00,16.0,meteohub,2013-08-20 13:37:00,
2013-08-20 06:42:00,60.6,54.7,30.05,WSW,237,0.0,1.0,81,0.00,,,0.00,19.0,meteohub,2013-08-20 13:42:00,
2013-08-20 06:47:00,60.6,55.0,30.05,WNW,293,0.0,1.0,82,0.00,,,0.00,23.0,meteohub,2013-08-20 13:47:00,
2013-08-20 06:52:00,60.6,55.0,30.06,WNW,293,0.0,1.0,82,0.00,,,0.00,26.0,meteohub,2013-08-20 13:52:00,
2013-08-20 06:57:00,60.6,55.0,30.06,WNW,293,0.0,1.0,82,0.00,,,0.00,26.0,meteohub,2013-08-20 13:57:00,
2013-08-20 07:02:00,60.6,54.7,30.06,NNW,329,0.0,2.0,81,0.00,,,0.00,25.0,meteohub,2013-08-20 14:02:00,
2013-08-20 07:07:00,60.6,54.7,30.06,North,9,0.0,2.0,81,0.00,,,0.00,23.0,meteohub,2013-08-20 14:07:00,
2013-08-20 07:12:00,60.6,54.7,30.06,NNW,342,0.0,3.0,81,0.00,,,0.00,23.0,meteohub,2013-08-20 14:12:00,
2013-08-20 07:17:00,60.6,54.7,30.06,North,0,0.0,3.0,81,0.00,,,0.00,23.0,meteohub,2013-08-20 14:17:00,
2013-08-20 07:22:00,60.8,54.7,30.07,SW,232,0.0,3.0,80,0.00,,,0.00,19.0,meteohub,2013-08-20 14:22:00,
2013-08-20 07:27:00,60.8,54.9,30.07,SW,232,0.0,3.0,81,0.00,,,0.00,19.0,meteohub,2013-08-20 14:27:00,
2013-08-20 07:32:00,60.8,54.7,30.07,SW,232,0.0,3.0,80,0.00,,,0.00,23.0,meteohub,2013-08-20 14:32:00,
2013-08-20 07:37:00,60.8,54.7,30.07,SW,232,0.0,1.0,80,0.00,,,0.00,25.0,meteohub,2013-08-20 14:37:00,
2013-08-20 07:42:00,60.6,54.7,30.07,WSW,244,1.0,1.0,81,0.00,,,0.00,23.0,meteohub,2013-08-20 14:42:00,
2013-08-20 07:47:00,60.6,54.7,30.07,WSW,242,1.0,2.0,81,0.00,,,0.00,23.0,meteohub,2013-08-20 14:47:00,
2013-08-20 07:52:00,60.6,54.7,30.07,NNW,342,1.0,2.0,81,0.00,,,0.00,26.0,meteohub,2013-08-20 14:52:00,
2013-08-20 07:57:00,60.4,54.9,30.07,NNE,22,0.0,2.0,82,0.00,,,0.00,30.0,meteohub,2013-08-20 14:57:00,
2013-08-20 08:02:00,60.3,55.0,30.07,NNE,22,0.0,3.0,83,0.00,,,0.00,28.0,meteohub,2013-08-20 15:02:00,
2013-08-20 08:07:00,60.3,55.0,30.07,NNE,22,0.0,3.0,83,0.00,,,0.00,23.0,meteohub,2013-08-20 15:07:00,
2013-08-20 08:12:00,60.3,55.0,30.07,NNE,22,0.0,2.0,83,0.00,,,0.00,23.0,meteohub,2013-08-20 15:12:00,
2013-08-20 08:17:00,60.1,54.9,30.07,NNE,22,0.0,1.0,83,0.00,,,0.00,25.0,meteohub,2013-08-20 15:17:00,
2013-08-20 08:22:00,60.1,54.5,30.07,NNE,22,0.0,1.0,82,0.00,,,0.00,23.0,meteohub,2013-08-20 15:22:00,
2013-08-20 08:27:00,60.1,54.9,30.07,NNE,28,0.0,1.0,83,0.00,,,0.00,28.0,meteohub,2013-08-20 15:27:00,
2013-08-20 08:32:00,60.1,55.2,30.07,WNW,285,1.0,2.0,84,0.00,,,0.00,30.0,meteohub,2013-08-20 15:32:00,
2013-08-20 08:37:00,60.1,54.9,30.07,WNW,286,0.0,2.0,83,0.00,,,0.00,35.0,meteohub,2013-08-20 15:37:00,
2013-08-20 08:42:00,60.1,54.9,30.08,SE,129,1.0,2.0,83,0.00,,,0.00,40.0,meteohub,2013-08-20 15:42:00,
2013-08-20 08:47:00,60.3,55.0,30.08,ESE,115,1.0,2.0,83,0.00,,,0.00,42.0,meteohub,2013-08-20 15:47:00,
2013-08-20 08:52:00,60.4,55.2,30.08,ESE,115,0.0,2.0,83,0.00,,,0.00,54.0,meteohub,2013-08-20 15:52:00,
2013-08-20 08:57:00,60.4,55.2,30.08,SE,138,0.0,2.0,83,0.00,,,0.00,172.0,meteohub,2013-08-20 15:57:00,
2013-08-20 09:02:00,61.9,55.9,30.08,SSW,207,0.0,2.0,81,0.00,,,0.00,390.0,meteohub,2013-08-20 16:02:00,
2013-08-20 09:07:00,62.4,55.8,30.08,SW,215,0.0,3.0,79,0.00,,,0.00,394.0,meteohub,2013-08-20 16:07:00,
2013-08-20 09:12:00,62.8,57.2,30.08,West,259,0.0,3.0,82,0.00,,,0.00,98.0,meteohub,2013-08-20 16:12:00,
2013-08-20 09:17:00,63.1,56.1,30.08,SW,219,0.0,4.0,78,0.00,,,0.00,188.0,meteohub,2013-08-20 16:17:00,
2013-08-20 09:22:00,63.1,55.8,30.08,SW,225,0.0,4.0,77,0.00,,,0.00,455.0,meteohub,2013-08-20 16:22:00,
2013-08-20 09:27:00,63.1,56.1,30.08,SSE,157,0.0,3.0,78,0.00,,,0.00,457.0,meteohub,2013-08-20 16:27:00,
2013-08-20 09:32:00,63.7,56.3,30.08,WSW,248,1.0,4.0,77,0.00,,,0.00,480.0,meteohub,2013-08-20 16:32:00,
2013-08-20 09:37:00,63.9,56.5,30.08,WNW,282,1.0,5.0,77,0.00,,,0.00,485.0,meteohub,2013-08-20 16:37:00,
2013-08-20 09:42:00,63.9,56.5,30.08,West,281,4.0,5.0,77,0.00,,,0.00,316.0,meteohub,2013-08-20 16:42:00,
2013-08-20 09:47:00,63.9,56.5,30.08,SW,216,0.0,6.0,77,0.00,,,0.00,387.0,meteohub,2013-08-20 16:47:00,
2013-08-20 09:52:00,64.0,57.0,30.08,WNW,288,2.0,6.0,78,0.00,,,0.00,153.0,meteohub,2013-08-20 16:52:00,
2013-08-20 09:57:00,64.0,57.0,30.08,WSW,248,0.0,6.0,78,0.00,,,0.00,62.0,meteohub,2013-08-20 16:57:00,
2013-08-20 10:02:00,64.2,57.2,30.08,West,275,2.0,5.0,78,0.00,,,0.00,127.0,meteohub,2013-08-20 17:02:00,
2013-08-20 10:07:00,64.4,57.0,30.08,NW,316,2.0,5.0,77,0.00,,,0.00,135.0,meteohub,2013-08-20 17:07:00,
2013-08-20 10:12:00,64.6,56.8,30.08,West,271,1.0,6.0,76,0.00,,,0.00,425.0,meteohub,2013-08-20 17:12:00,
2013-08-20 10:17:00,64.6,56.8,30.08,West,271,3.0,6.0,76,0.00,,,0.00,63.0,meteohub,2013-08-20 17:17:00,
2013-08-20 10:22:00,64.6,56.8,30.08,WNW,283,8.0,8.0,76,0.00,,,0.00,142.0,meteohub,2013-08-20 17:22:00,
2013-08-20 10:27:00,64.6,57.2,30.09,West,264,4.0,9.0,77,0.00,,,0.00,91.0,meteohub,2013-08-20 17:27:00,
2013-08-20 10:32:00,64.8,57.0,30.08,West,263,5.0,9.0,76,0.00,,,0.00,107.0,meteohub,2013-08-20 17:32:00,
2013-08-20 10:37:00,64.8,57.0,30.08,WNW,292,2.0,9.0,76,0.00,,,0.00,163.0,meteohub,2013-08-20 17:37:00,
2013-08-20 10:42:00,65.1,57.4,30.09,West,267,2.0,10.0,76,0.00,,,0.00,654.0,meteohub,2013-08-20 17:42:00,
2013-08-20 10:47:00,65.3,56.8,30.08,SW,234,2.0,10.0,74,0.00,,,0.00,670.0,meteohub,2013-08-20 17:47:00,
2013-08-20 10:52:00,65.5,57.4,30.08,WSW,249,4.0,8.0,75,0.00,,,0.00,684.0,meteohub,2013-08-20 17:52:00,
2013-08-20 10:57:00,65.5,57.0,30.08,West,267,5.0,8.0,74,0.00,,,0.00,694.0,meteohub,2013-08-20 17:57:00,
2013-08-20 11:02:00,65.5,57.0,30.08,WSW,250,1.0,7.0,74,0.00,,,0.00,192.0,meteohub,2013-08-20 18:02:00,
2013-08-20 11:07:00,65.5,57.0,30.08,WSW,246,5.0,7.0,74,0.00,,,0.00,100.0,meteohub,2013-08-20 18:07:00,
2013-08-20 11:12:00,65.7,56.8,30.08,West,262,5.0,8.0,73,0.00,,,0.00,69.0,meteohub,2013-08-20 18:12:00,
2013-08-20 11:17:00,65.5,57.0,30.09,West,276,1.0,9.0,74,0.00,,,0.00,72.0,meteohub,2013-08-20 18:17:00,
2013-08-20 11:22:00,65.7,57.9,30.09,WNW,300,1.0,9.0,76,0.00,,,0.00,70.0,meteohub,2013-08-20 18:22:00,
2013-08-20 11:27:00,66.2,58.1,30.09,NW,323,0.0,9.0,75,0.00,,,0.00,86.0,meteohub,2013-08-20 18:27:00,
2013-08-20 11:32:00,66.6,56.5,30.09,South,191,0.0,8.0,70,0.00,,,0.00,120.0,meteohub,2013-08-20 18:32:00,
2013-08-20 11:37:00,66.6,56.8,30.09,ENE,74,0.0,7.0,71,0.00,,,0.00,77.0,meteohub,2013-08-20 18:37:00,
2013-08-20 11:42:00,66.6,57.2,30.09,WNW,289,3.0,6.0,72,0.00,,,0.00,155.0,meteohub,2013-08-20 18:42:00,
2013-08-20 11:47:00,66.7,56.3,30.08,SSW,213,1.0,6.0,69,0.00,,,0.00,257.0,meteohub,2013-08-20 18:47:00,
2013-08-20 11:52:00,66.7,55.8,30.09,West,275,6.0,6.0,68,0.00,,,0.00,264.0,meteohub,2013-08-20 18:52:00,
2013-08-20 11:57:00,67.3,56.8,30.09,WNW,300,0.0,9.0,69,0.00,,,0.00,679.0,meteohub,2013-08-20 18:57:00,
2013-08-20 12:02:00,67.8,56.5,30.09,NW,306,5.0,9.0,67,0.00,,,0.00,809.0,meteohub,2013-08-20 19:02:00,
2013-08-20 12:07:00,68.0,56.7,30.09,NNE,25,0.0,9.0,67,0.00,,,0.00,805.0,meteohub,2013-08-20 19:07:00,
2013-08-20 12:12:00,68.4,54.9,30.09,WSW,249,4.0,8.0,62,0.00,,,0.00,297.0,meteohub,2013-08-20 19:12:00,
2013-08-20 12:17:00,68.0,54.9,30.09,WNW,303,4.0,9.0,63,0.00,,,0.00,67.0,meteohub,2013-08-20 19:17:00,
2013-08-20 12:22:00,68.2,54.7,30.09,NNE,33,0.0,9.0,62,0.00,,,0.00,67.0,meteohub,2013-08-20 19:22:00,
2013-08-20 12:27:00,68.5,54.5,30.09,SSE,159,1.0,9.0,61,0.00,,,0.00,237.0,meteohub,2013-08-20 19:27:00,
2013-08-20 12:32:00,68.4,54.9,30.08,SSE,161,0.0,8.0,62,0.00,,,0.00,70.0,meteohub,2013-08-20 19:32:00,
2013-08-20 12:37:00,68.7,54.7,30.08,NW,318,0.0,4.0,61,0.00,,,0.00,139.0,meteohub,2013-08-20 19:37:00,
2013-08-20 12:42:00,69.3,53.8,30.09,SW,236,4.0,4.0,58,0.00,,,0.00,323.0,meteohub,2013-08-20 19:42:00,
2013-08-20 12:47:00,69.3,51.4,30.08,SW,232,0.0,8.0,53,0.00,,,0.00,851.0,meteohub,2013-08-20 19:47:00,
2013-08-20 12:52:00,69.8,50.9,30.08,West,259,2.0,8.0,51,0.00,,,0.00,856.0,meteohub,2013-08-20 19:52:00,
2013-08-20 12:57:00,70.5,51.4,30.08,SSW,194,1.0,9.0,51,0.00,,,0.00,858.0,meteohub,2013-08-20 19:57:00,
2013-08-20 13:02:00,71.1,50.4,30.08,SW,234,3.0,9.0,48,0.00,,,0.00,860.0,meteohub,2013-08-20 20:02:00,
2013-08-20 13:07:00,71.2,51.6,30.08,West,277,6.0,9.0,50,0.00,,,0.00,861.0,meteohub,2013-08-20 20:07:00,
2013-08-20 13:12:00,72.7,54.0,30.08,WSW,250,3.0,7.0,52,0.00,,,0.00,863.0,meteohub,2013-08-20 20:12:00,
2013-08-20 13:17:00,72.0,47.7,30.08,SSW,205,1.0,7.0,42,0.00,,,0.00,867.0,meteohub,2013-08-20 20:17:00,
2013-08-20 13:22:00,72.1,47.8,30.07,SSE,149,4.0,7.0,42,0.00,,,0.00,867.0,meteohub,2013-08-20 20:22:00,
2013-08-20 13:27:00,72.1,47.8,30.08,South,182,1.0,8.0,42,0.00,,,0.00,863.0,meteohub,2013-08-20 20:27:00,
2013-08-20 13:32:00,72.7,46.2,30.07,West,272,3.0,8.0,39,0.00,,,0.00,861.0,meteohub,2013-08-20 20:32:00,
2013-08-20 13:37:00,72.9,47.8,30.07,SSW,198,2.0,8.0,41,0.00,,,0.00,863.0,meteohub,2013-08-20 20:37:00,
2013-08-20 13:42:00,72.9,47.8,30.07,NNE,33,0.0,6.0,41,0.00,,,0.00,860.0,meteohub,2013-08-20 20:42:00,
2013-08-20 13:47:00,73.0,47.3,30.07,South,173,0.0,6.0,40,0.00,,,0.00,861.0,meteohub,2013-08-20 20:47:00,
2013-08-20 13:52:00,73.2,48.7,30.07,WNW,283,0.0,6.0,42,0.00,,,0.00,860.0,meteohub,2013-08-20 20:52:00,
2013-08-20 13:57:00,73.0,46.6,30.07,SE,127,0.0,6.0,39,0.00,,,0.00,856.0,meteohub,2013-08-20 20:57:00,
2013-08-20 14:02:00,72.9,46.4,30.07,SSW,196,2.0,5.0,39,0.00,,,0.00,485.0,meteohub,2013-08-20 21:02:00,
2013-08-20 14:07:00,72.7,46.9,30.07,SSE,154,0.0,6.0,40,0.00,,,0.00,105.0,meteohub,2013-08-20 21:07:00,
2013-08-20 14:12:00,72.3,48.0,30.06,SSE,147,5.0,6.0,42,0.00,,,0.00,74.0,meteohub,2013-08-20 21:12:00,
2013-08-20 14:17:00,72.9,49.6,30.06,SSE,156,4.0,6.0,44,0.00,,,0.00,116.0,meteohub,2013-08-20 21:17:00,
2013-08-20 14:22:00,72.9,47.8,30.07,West,267,2.0,6.0,41,0.00,,,0.00,74.0,meteohub,2013-08-20 21:22:00,
2013-08-20 14:27:00,73.0,48.0,30.07,SSE,163,1.0,6.0,41,0.00,,,0.00,107.0,meteohub,2013-08-20 21:27:00,
2013-08-20 14:32:00,72.3,49.1,30.06,ESE,119,2.0,5.0,44,0.00,,,0.00,76.0,meteohub,2013-08-20 21:32:00,
2013-08-20 14:37:00,72.3,48.6,30.06,SSW,210,0.0,5.0,43,0.00,,,0.00,65.0,meteohub,2013-08-20 21:37:00,
2013-08-20 14:42:00,72.7,48.2,30.06,SSW,192,2.0,5.0,42,0.00,,,0.00,83.0,meteohub,2013-08-20 21:42:00,
2013-08-20 14:47:00,72.7,48.2,30.06,South,189,4.0,5.0,42,0.00,,,0.00,67.0,meteohub,2013-08-20 21:47:00,
2013-08-20 14:52:00,73.0,48.0,30.06,WSW,248,2.0,4.0,41,0.00,,,0.00,114.0,meteohub,2013-08-20 21:52:00,
2013-08-20 14:57:00,72.7,48.9,30.06,SSE,160,4.0,6.0,43,0.00,,,0.00,262.0,meteohub,2013-08-20 21:57:00,
2013-08-20 15:02:00,72.1,48.4,30.06,SSE,147,2.0,6.0,43,0.00,,,0.00,784.0,meteohub,2013-08-20 22:02:00,
2013-08-20 15:07:00,72.3,49.1,30.06,SSE,168,2.0,6.0,44,0.00,,,0.00,63.0,meteohub,2013-08-20 22:07:00,
2013-08-20 15:12:00,72.9,49.6,30.06,SSE,163,2.0,6.0,44,0.00,,,0.00,93.0,meteohub,2013-08-20 22:12:00,
2013-08-20 15:17:00,72.3,49.1,30.05,SSE,164,1.0,6.0,44,0.00,,,0.00,383.0,meteohub,2013-08-20 22:17:00,
2013-08-20 15:22:00,72.5,48.7,30.05,South,173,4.0,5.0,43,0.00,,,0.00,76.0,meteohub,2013-08-20 22:22:00,
2013-08-20 15:27:00,72.7,48.2,30.05,South,171,3.0,5.0,42,0.00,,,0.00,67.0,meteohub,2013-08-20 22:27:00,
2013-08-20 15:32:00,72.5,48.0,30.05,SSW,196,3.0,4.0,42,0.00,,,0.00,69.0,meteohub,2013-08-20 22:32:00,
2013-08-20 15:37:00,72.7,48.9,30.05,SSW,213,2.0,4.0,43,0.00,,,0.00,114.0,meteohub,2013-08-20 22:37:00,
2013-08-20 15:42:00,73.6,48.4,30.05,SW,227,1.0,4.0,41,0.00,,,0.00,84.0,meteohub,2013-08-20 22:42:00,
2013-08-20 15:47:00,72.7,47.7,30.05,WSW,242,2.0,5.0,41,0.00,,,0.00,65.0,meteohub,2013-08-20 22:47:00,
2013-08-20 15:52:00,72.3,48.6,30.05,SSW,210,1.0,5.0,43,0.00,,,0.00,207.0,meteohub,2013-08-20 22:52:00,
2013-08-20 15:57:00,72.3,49.1,30.04,SSW,201,0.0,5.0,44,0.00,,,0.00,144.0,meteohub,2013-08-20 22:57:00,
2013-08-20 16:02:00,72.1,49.1,30.04,SSW,209,1.0,4.0,44,0.00,,,0.00,62.0,meteohub,2013-08-20 23:02:00,
2013-08-20 16:07:00,72.3,49.8,30.04,South,186,1.0,4.0,45,0.00,,,0.00,127.0,meteohub,2013-08-20 23:07:00,
2013-08-20 16:12:00,71.8,48.0,30.04,South,170,1.0,4.0,43,0.00,,,0.00,62.0,meteohub,2013-08-20 23:12:00,
2013-08-20 16:17:00,71.8,49.3,30.04,SE,143,2.0,4.0,45,0.00,,,0.00,304.0,meteohub,2013-08-20 23:17:00,
2013-08-20 16:22:00,72.3,49.1,30.04,SSW,202,1.0,4.0,44,0.00,,,0.00,65.0,meteohub,2013-08-20 23:22:00,
2013-08-20 16:27:00,72.1,47.8,30.04,SSE,168,2.0,4.0,42,0.00,,,0.00,98.0,meteohub,2013-08-20 23:27:00,
2013-08-20 16:32:00,72.1,48.4,30.04,WSW,250,2.0,3.0,43,0.00,,,0.00,69.0,meteohub,2013-08-20 23:32:00,
2013-08-20 16:37:00,72.0,48.2,30.04,WSW,243,1.0,5.0,43,0.00,,,0.00,83.0,meteohub,2013-08-20 23:37:00,
2013-08-20 16:42:00,72.1,47.1,30.03,SW,221,2.0,5.0,41,0.00,,,0.00,294.0,meteohub,2013-08-20 23:42:00,
2013-08-20 16:47:00,72.1,47.1,30.03,SW,219,3.0,5.0,41,0.00,,,0.00,237.0,meteohub,2013-08-20 23:47:00,
2013-08-20 16:52:00,72.0,49.5,30.03,WSW,244,1.0,4.0,45,0.00,,,0.00,109.0,meteohub,2013-08-20 23:52:00,
2013-08-20 16:57:00,72.0,53.4,30.03,SSE,162,1.0,4.0,52,0.00,,,0.00,95.0,meteohub,2013-08-20 23:57:00,
2013-08-20 17:02:00,71.2,51.6,30.02,South,169,0.0,4.0,50,0.00,,,0.00,258.0,meteohub,2013-08-21 00:02:00,
2013-08-20 17:07:00,71.1,51.4,30.02,South,180,2.0,3.0,50,0.00,,,0.00,83.0,meteohub,2013-08-21 00:07:00,
2013-08-20 17:12:00,71.4,51.3,30.02,SSE,157,1.0,4.0,49,0.00,,,0.00,148.0,meteohub,2013-08-21 00:12:00,
2013-08-20 17:17:00,72.0,52.9,30.02,SSE,160,1.0,5.0,51,0.00,,,0.00,292.0,meteohub,2013-08-21 00:17:00,
2013-08-20 17:22:00,72.3,53.2,30.01,South,179,0.0,5.0,51,0.00,,,0.00,378.0,meteohub,2013-08-21 00:22:00,
2013-08-20 17:27:00,72.7,54.0,30.02,South,185,0.0,3.0,52,0.00,,,0.00,468.0,meteohub,2013-08-21 00:27:00,
2013-08-20 17:32:00,73.0,52.2,30.01,SW,217,0.0,3.0,48,0.00,,,0.00,455.0,meteohub,2013-08-21 00:32:00,
2013-08-20 17:37:00,73.0,50.4,30.01,WSW,253,5.0,5.0,45,0.00,,,0.00,443.0,meteohub,2013-08-21 00:37:00,
2013-08-20 17:42:00,73.0,51.1,30.01,SSE,149,1.0,6.0,46,0.00,,,0.00,427.0,meteohub,2013-08-21 00:42:00,
2013-08-20 17:47:00,73.2,51.3,30.01,SSW,211,2.0,6.0,46,0.00,,,0.00,411.0,meteohub,2013-08-21 00:47:00,
2013-08-20 17:52:00,72.5,52.3,30.01,SSE,163,1.0,6.0,49,0.00,,,0.00,396.0,meteohub,2013-08-21 00:52:00,
2013-08-20 17:57:00,72.1,54.1,30.01,SSE,150,1.0,4.0,53,0.00,,,0.00,188.0,meteohub,2013-08-21 00:57:00,
2013-08-20 18:02:00,72.1,53.1,30.01,SSE,157,0.0,4.0,51,0.00,,,0.00,69.0,meteohub,2013-08-21 01:02:00,
2013-08-20 18:07:00,72.3,53.2,30.01,SSW,206,0.0,4.0,51,0.00,,,0.00,47.0,meteohub,2013-08-21 01:07:00,
2013-08-20 18:12:00,72.9,51.4,30.01,West,262,0.0,4.0,47,0.00,,,0.00,158.0,meteohub,2013-08-21 01:12:00,
2013-08-20 18:17:00,73.0,49.8,30.01,SSW,211,2.0,4.0,44,0.00,,,0.00,65.0,meteohub,2013-08-21 01:17:00,
2013-08-20 18:19:00,73.2,49.5,30.01,WNW,292,2.0,4.0,43,0.00,,,0.00,65.0,meteohub,2013-08-21 01:19:00,
2013-08-20 18:24:00,73.2,50.0,30.01,SSW,203,0.0,4.0,44,0.00,,,0.00,77.0,meteohub,2013-08-21 01:24:00,
2013-08-20 18:29:00,73.2,46.8,30.01,SE,145,1.0,4.0,39,0.00,,,0.00,44.0,meteohub,2013-08-21 01:29:00,
2013-08-20 18:34:00,73.2,47.5,30.01,WSW,249,0.0,4.0,40,0.00,,,0.00,42.0,meteohub,2013-08-21 01:34:00,
2013-08-20 18:39:00,73.2,49.5,30.00,West,269,3.0,4.0,43,0.00,,,0.00,40.0,meteohub,2013-08-21 01:39:00,
2013-08-20 18:44:00,72.9,50.9,30.00,SSW,211,2.0,4.0,46,0.00,,,0.00,40.0,meteohub,2013-08-21 01:44:00,
2013-08-20 18:49:00,72.7,50.2,30.00,SSW,211,1.0,4.0,45,0.00,,,0.00,40.0,meteohub,2013-08-21 01:49:00,
2013-08-20 18:54:00,72.5,50.0,29.99,South,188,1.0,4.0,45,0.00,,,0.00,39.0,meteohub,2013-08-21 01:54:00,
2013-08-20 18:59:00,72.1,52.0,30.00,South,182,1.0,3.0,49,0.00,,,0.00,35.0,meteohub,2013-08-21 01:59:00,
2013-08-20 19:04:00,72.0,54.0,29.99,South,186,0.0,3.0,53,0.00,,,0.00,37.0,meteohub,2013-08-21 02:04:00,
2013-08-20 19:09:00,72.1,49.1,29.99,South,190,0.0,3.0,44,0.00,,,0.00,83.0,meteohub,2013-08-21 02:09:00,
2013-08-20 19:14:00,72.5,49.3,30.00,South,190,0.0,2.0,44,0.00,,,0.00,109.0,meteohub,2013-08-21 02:14:00,
2013-08-20 19:19:00,71.8,48.7,30.00,South,190,0.0,2.0,44,0.00,,,0.00,53.0,meteohub,2013-08-21 02:19:00,
2013-08-20 19:24:00,71.8,45.5,30.00,WSW,248,1.0,2.0,39,0.00,,,0.00,42.0,meteohub,2013-08-21 02:24:00,
2013-08-20 19:29:00,71.6,47.3,30.00,WSW,257,5.0,5.0,42,0.00,,,0.00,26.0,meteohub,2013-08-21 02:29:00,
2013-08-20 19:34:00,71.4,46.6,30.00,SW,219,0.0,5.0,41,0.00,,,0.00,26.0,meteohub,2013-08-21 02:34:00,
2013-08-20 19:39:00,70.9,49.1,30.00,SW,215,0.0,5.0,46,0.00,,,0.00,21.0,meteohub,2013-08-21 02:39:00,
2013-08-20 19:44:00,70.3,47.5,30.00,South,173,0.0,5.0,44,0.00,,,0.00,19.0,meteohub,2013-08-21 02:44:00,
2013-08-20 19:49:00,69.6,50.7,30.00,South,173,0.0,2.0,51,0.00,,,0.00,14.0,meteohub,2013-08-21 02:49:00,
2013-08-20 19:54:00,69.3,50.9,30.00,South,173,0.0,2.0,52,0.00,,,0.00,11.0,meteohub,2013-08-21 02:54:00,
2013-08-20 19:59:00,68.9,49.5,30.00,SSE,156,0.0,2.0,50,0.00,,,0.00,9.0,meteohub,2013-08-21 02:59:00,
2013-08-20 20:04:00,68.2,50.4,30.00,SE,134,1.0,1.0,53,0.00,,,0.00,7.0,meteohub,2013-08-21 03:04:00,
2013-08-20 20:09:00,68.2,49.8,30.00,ESE,105,0.0,2.0,52,0.00,,,0.00,5.0,meteohub,2013-08-21 03:09:00,
2013-08-20 20:14:00,67.8,50.0,30.00,ESE,105,1.0,2.0,53,0.00,,,0.00,5.0,meteohub,2013-08-21 03:14:00,
2013-08-20 20:19:00,67.6,50.4,30.00,ESE,105,0.0,2.0,54,0.00,,,0.00,0.0,meteohub,2013-08-21 03:19:00,
2013-08-20 20:24:00,67.8,49.6,30.00,East,101,0.0,2.0,52,0.00,,,0.00,0.0,meteohub,2013-08-21 03:24:00,
2013-08-20 20:29:00,67.5,51.6,30.00,East,101,0.0,2.0,57,0.00,,,0.00,0.0,meteohub,2013-08-21 03:29:00,
2013-08-20 20:34:00,66.7,51.1,30.00,East,101,0.0,2.0,57,0.00,,,0.00,0.0,meteohub,2013-08-21 03:34:00,
2013-08-20 20:39:00,66.2,50.9,30.00,East,101,1.0,2.0,58,0.00,,,0.00,0.0,meteohub,2013-08-21 03:39:00,
2013-08-20 20:44:00,66.0,49.5,30.01,East,101,0.0,2.0,55,0.00,,,0.00,0.0,meteohub,2013-08-21 03:44:00,
2013-08-20 20:49:00,65.7,50.5,30.01,NE,42,0.0,2.0,58,0.00,,,0.00,0.0,meteohub,2013-08-21 03:49:00,
2013-08-20 20:54:00,66.0,49.5,30.01,NE,47,0.0,2.0,55,0.00,,,0.00,0.0,meteohub,2013-08-21 03:54:00,
2013-08-20 20:59:00,66.6,49.8,30.01,NNE,32,1.0,2.0,55,0.00,,,0.00,0.0,meteohub,2013-08-21 03:59:00,
2013-08-20 21:01:00,66.6,50.9,30.01,NNE,32,2.0,3.0,57,0.00,,,0.00,0.0,meteohub,2013-08-21 04:01:00,
2013-08-20 21:06:00,65.8,50.2,30.01,NNE,32,1.0,3.0,57,0.00,,,0.00,0.0,meteohub,2013-08-21 04:06:00,
2013-08-20 21:11:00,65.7,50.5,30.01,NNE,32,2.0,3.0,58,0.00,,,0.00,0.0,meteohub,2013-08-21 04:11:00,
2013-08-20 21:16:00,65.7,49.5,30.01,NNE,32,1.0,3.0,56,0.00,,,0.00,0.0,meteohub,2013-08-21 04:16:00,
2013-08-20 21:21:00,65.5,49.8,30.01,NNE,32,1.0,2.0,57,0.00,,,0.00,0.0,meteohub,2013-08-21 04:21:00,
2013-08-20 21:26:00,65.3,49.6,30.01,NNE,32,0.0,2.0,57,0.00,,,0.00,0.0,meteohub,2013-08-21 04:26:00,
2013-08-20 21:31:00,65.1,50.4,30.01,NNE,32,0.0,2.0,59,0.00,,,0.00,0.0,meteohub,2013-08-21 04:31:00,
2013-08-20 21:36:00,64.8,50.2,30.01,NNE,32,0.0,2.0,59,0.00,,,0.00,0.0,meteohub,2013-08-21 04:36:00,
2013-08-20 21:41:00,64.8,50.5,30.01,NNE,32,1.0,2.0,60,0.00,,,0.00,0.0,meteohub,2013-08-21 04:41:00,
2013-08-20 21:46:00,64.6,50.4,30.01,NNE,32,0.0,2.0,60,0.00,,,0.00,0.0,meteohub,2013-08-21 04:46:00,
2013-08-20 21:51:00,64.0,50.7,30.01,NNE,32,1.0,2.0,62,0.00,,,0.00,0.0,meteohub,2013-08-21 04:51:00,
2013-08-20 21:56:00,64.0,50.4,30.01,NNE,32,0.0,2.0,61,0.00,,,0.00,0.0,meteohub,2013-08-21 04:56:00,
2013-08-20 22:02:00,64.0,49.8,30.01,NNE,32,2.0,2.0,60,0.00,,,0.00,0.0,meteohub,2013-08-21 05:02:00,
2013-08-20 22:07:00,63.9,50.2,30.01,NNE,32,2.0,3.0,61,0.00,,,0.00,0.0,meteohub,2013-08-21 05:07:00,
2013-08-20 22:12:00,63.7,50.4,30.02,NNE,32,0.0,3.0,62,0.00,,,0.00,0.0,meteohub,2013-08-21 05:12:00,
2013-08-20 22:17:00,63.7,50.0,30.02,NNE,32,0.0,3.0,61,0.00,,,0.00,0.0,meteohub,2013-08-21 05:17:00,
2013-08-20 22:22:00,63.7,50.4,30.02,NNE,32,1.0,3.0,62,0.00,,,0.00,0.0,meteohub,2013-08-21 05:22:00,
2013-08-20 22:27:00,63.5,51.1,30.02,NNE,32,2.0,3.0,64,0.00,,,0.00,0.0,meteohub,2013-08-21 05:27:00,
2013-08-20 22:32:00,63.3,50.9,30.02,NNE,30,2.0,3.0,64,0.00,,,0.00,0.0,meteohub,2013-08-21 05:32:00,
2013-08-20 22:37:00,63.0,51.1,30.02,NNE,30,0.0,3.0,65,0.00,,,0.00,0.0,meteohub,2013-08-21 05:37:00,
2013-08-20 22:42:00,63.0,51.4,30.02,NNE,30,0.0,3.0,66,0.00,,,0.00,0.0,meteohub,2013-08-21 05:42:00,
2013-08-20 22:47:00,62.6,51.1,30.02,NNE,30,0.0,3.0,66,0.00,,,0.00,0.0,meteohub,2013-08-21 05:47:00,
2013-08-20 22:52:00,62.6,51.4,30.02,NNE,30,2.0,2.0,67,0.00,,,0.00,0.0,meteohub,2013-08-21 05:52:00,
2013-08-20 22:57:00,62.2,51.6,30.02,NNE,30,0.0,4.0,68,0.00,,,0.00,0.0,meteohub,2013-08-21 05:57:00,
2013-08-20 23:02:00,62.2,52.0,30.02,NNE,24,3.0,4.0,69,0.00,,,0.00,0.0,meteohub,2013-08-21 06:02:00,
2013-08-20 23:07:00,62.1,51.8,30.02,NNE,24,2.0,4.0,69,0.00,,,0.00,0.0,meteohub,2013-08-21 06:07:00,
2013-08-20 23:12:00,61.9,51.6,30.02,NNE,24,1.0,3.0,69,0.00,,,0.00,0.0,meteohub,2013-08-21 06:12:00,
2013-08-20 23:17:00,61.9,51.6,30.02,NNE,24,1.0,3.0,69,0.00,,,0.00,0.0,meteohub,2013-08-21 06:17:00,
2013-08-20 23:22:00,61.5,51.6,30.02,NNE,24,2.0,3.0,70,0.00,,,0.00,0.0,meteohub,2013-08-21 06:22:00,
2013-08-20 23:27:00,61.3,51.8,30.02,NNE,24,1.0,3.0,71,0.00,,,0.00,0.0,meteohub,2013-08-21 06:27:00,
2013-08-20 23:32:00,61.2,51.3,30.02,NNE,26,1.0,3.0,70,0.00,,,0.00,0.0,meteohub,2013-08-21 06:32:00,
2013-08-20 23:37:00,61.0,52.0,30.02,NNE,24,2.0,3.0,72,0.00,,,0.00,0.0,meteohub,2013-08-21 06:37:00,
2013-08-20 23:42:00,60.6,52.3,30.02,NNE,28,2.0,3.0,74,0.00,,,0.00,0.0,meteohub,2013-08-21 06:42:00,
2013-08-20 23:47:00,60.4,52.9,30.02,NNE,32,0.0,3.0,76,0.00,,,0.00,0.0,meteohub,2013-08-21 06:47:00,
2013-08-20 23:52:00,60.4,52.9,30.02,NNE,23,2.0,3.0,76,0.00,,,0.00,0.0,meteohub,2013-08-21 06:52:00,
2013-08-20 23:57:00,60.4,53.2,30.02,NNE,24,2.0,3.0,77,0.00,,,0.00,0.0,meteohub,2013-08-21 06:57:00,